[[{"header":{"parameterUnit":"m.s-1","parameterCategory":1,"la1":30.2991,"la2":30.254,"lo1":-89.0895,"lo2":-89.0444,"dy":0.0017,"dx":0.0017,"nx":28,"ny":28,"refTime":"2023-10-21T21:00:00:Z","depth":0,"parameterNumber":2,"parameterNumberName":"U-component_of_WINDS"},"data":[0,0,0,0,0,0,0,0,0,0,0,0,0,0,0,0,0,0,0,0,0,0,0,0,0,0,0,0,0,0,0,0,0,0,0,0,0,0,0,0,0,0,0,0,0,0,0,0,0,0,0,0,0,0,0,0,0,0,1.1556,1.1556,0,1.1595,1.1595,1.1596,1.1579,1.1578,1.1577,1.1576,1.1617,1.1618,1.162,0,0,0,0,0,0,0,0,0,0,0,0,0,1.1467,1.1468,1.1556,1.1556,1.1557,1.1595,1.1595,1.1596,1.1579,1.1578,1.1576,1.1575,1.1616,1.1618,1.1621,0,0,0,0,0,0,0,0,0,0,0,0,0,1.1506,1.1469,1.1556,1.1553,1.1553,1.1595,1.1595,1.1596,1.1579,1.1578,1.1576,1.1575,1.1615,1.1618,1.1621,1.1668,0,0,1.163,1.1631,0,0,0,0,0,0,0,0,1.1503,1.1509,1.1553,1.1553,1.1553,1.158,1.1579,1.162,1.1579,1.1569,1.1576,1.1574,1.1606,1.1609,1.162,1.167,1.1672,1.163,1.1632,1.1633,1.1634,0,0,0,0,0,0,0,1.1501,1.1507,1.1571,1.1553,1.1554,1.155,1.1554,1.1587,1.1595,1.157,1.1569,1.1574,1.1606,1.1617,1.1621,1.1672,1.163,1.1633,1.1635,1.1636,1.1764,1.1766,0,0,0,0,0,0,1.1498,1.1505,1.157,1.1572,1.1524,1.1553,1.1557,1.1573,1.1595,1.1597,1.1575,1.1573,1.1613,1.1617,1.1622,1.1679,1.1633,1.1636,1.1638,1.1762,1.1764,1.1766,0,0,0,0,0,0,1.1496,1.1504,1.1568,1.1538,1.1546,1.1556,1.1574,1.1575,1.1586,1.1598,1.16,1.1585,1.1612,1.1618,1.1657,1.168,1.1637,1.164,1.176,1.1763,1.1765,1.1793,0,0,0,0,0,0,1.1494,1.1503,1.1521,1.1539,1.1548,1.1602,1.1575,1.1576,1.1591,1.1589,1.1608,1.161,1.1611,1.1653,1.166,1.1684,1.1642,1.1758,1.1762,1.1764,1.179,1.1796,1.1801,0,0,0,0,0,1.1491,1.1527,1.1522,1.153,1.157,1.1604,1.1609,1.1609,1.1593,1.1611,1.1619,1.1609,1.1677,1.1657,1.1665,1.169,1.1757,1.1761,1.1764,1.1788,1.1795,1.1801,0,0,0,0,0,0,1.1512,1.153,1.1524,1.1568,1.1584,1.1601,1.1623,1.1617,1.1638,1.1635,1.1635,1.164,1.168,1.1689,1.1666,1.1737,1.1714,1.172,1.1729,1.1737,1.1742,1.1739,1.1645,0,0,0,0,0,1.1522,1.1547,1.1561,1.1599,1.1607,1.1614,1.1629,1.1627,1.1645,1.1652,1.1662,1.168,1.1705,1.1721,1.1745,1.1792,1.1796,1.1813,1.1819,1.1823,1.1828,1.1853,1.1861,1.1778,1.1778,1.1778,0,0,1.1542,1.1555,1.1571,1.1603,1.1616,1.1643,1.162,1.1649,1.1669,1.1656,1.1693,1.1702,1.1722,1.1765,1.1784,1.1773,1.1852,1.1828,1.1831,1.1833,1.1858,1.1866,1.1873,1.1781,1.178,1.178,0,0,1.1593,1.1605,1.1638,1.1651,1.1671,1.1675,1.1683,1.1701,1.1706,1.1744,1.1735,1.1759,1.1802,1.1816,1.1829,1.1887,1.1879,1.1894,1.1924,1.1949,1.1955,1.1961,1.1982,1.1989,1.1899,1.1899,1.1899,0,1.1616,1.1656,1.1655,1.1685,1.17,1.169,1.1723,1.1736,1.1763,1.1773,1.176,1.1815,1.1827,1.1874,1.1888,1.1899,1.1908,1.1892,1.1954,1.196,1.1966,1.1985,1.1993,1.1901,1.1901,1.1901,1.19,0,1.1683,1.1711,1.1735,1.176,1.1778,1.1809,1.1814,1.1832,1.183,1.1835,1.1874,1.1889,1.1916,1.1927,1.1925,1.1973,1.1966,1.1954,1.1931,1.1975,1.1994,1.2001,1.1904,1.1903,1.1902,1.1902,0,0,1.1747,1.1774,1.1782,1.1794,1.1816,1.1837,1.1868,1.1895,1.191,1.1929,1.1955,1.1992,1.1982,1.1996,1.1996,1.2018,1.2063,1.2004,1.2004,1.2014,1.2118,1.2126,1.2135,1.2058,1.2059,1.2061,1.2116,0,1.18,1.1854,1.1855,1.1905,1.1931,1.1923,1.195,1.1966,1.1973,1.1996,1.2004,1.203,1.2014,1.2023,1.2044,1.2053,1.2084,1.2049,1.2083,1.2084,1.2078,1.2145,1.2154,1.2205,1.2123,1.2125,1.2125,0,1.1868,1.1889,1.1942,1.196,1.1971,1.1995,1.202,1.2042,1.2061,1.2064,1.2081,1.2077,1.211,1.2087,1.2132,1.2108,1.2122,1.2129,1.2131,1.2133,1.2107,1.2149,1.2222,1.2229,1.2137,1.2136,1.2135,0,1.1909,1.1951,1.1988,1.1999,1.2021,1.2039,1.2049,1.2066,1.2082,1.2103,1.2114,1.2139,1.2153,1.2172,1.2176,1.2159,1.2221,1.2198,1.2225,1.2225,1.2238,1.2237,1.2314,1.2248,1.2248,1.2248,1.2248,0,1.1967,1.2,1.2007,1.203,1.2066,1.2068,1.2104,1.2113,1.2129,1.2153,1.2148,1.2171,1.2175,1.2199,1.2202,1.2239,1.2246,1.2249,1.225,1.225,1.2249,1.2258,1.2255,1.225,1.2249,1.2249,1.2249,0,1.202,1.2026,1.2066,1.2084,1.2089,1.2115,1.2131,1.2153,1.216,1.2191,1.2198,1.2208,1.2237,1.2243,1.2277,1.2279,1.2323,1.232,1.2316,1.2316,1.2342,1.234,1.2427,1.2439,1.2366,1.2366,1.2367,0,1.2056,1.2081,1.2102,1.2118,1.2129,1.2155,1.2171,1.2174,1.2191,1.2215,1.2235,1.2262,1.2285,1.2331,1.2341,1.2367,1.2365,1.2394,1.2369,1.2368,1.2365,1.2363,1.2366,1.2398,1.2399,1.24,1.24,0,1.212,1.2122,1.2145,1.2171,1.219,1.221,1.2229,1.2242,1.2248,1.2268,1.2297,1.2314,1.2349,1.2377,1.2403,1.2414,1.2408,1.2408,1.2416,1.2416,1.2413,1.2415,1.2329,1.2406,1.2405,1.2405,1.2405,1.2405,1.2165,1.2187,1.2205,1.2232,1.2247,1.2265,1.2286,1.2296,1.232,1.2348,1.2349,1.2381,1.24,1.2434,1.2447,1.2472,1.2463,1.2474,1.2477,1.2479,1.2482,1.2409,1.2477,1.2477,1.2476,1.2476,1.2476,0,1.2229,1.224,1.2265,1.2291,1.2313,1.2306,1.2327,1.2345,1.2373,1.2391,1.2413,1.2447,1.2474,1.2487,1.2514,1.2532,1.253,1.2539,1.2538,1.254,1.2488,1.2479,1.254,1.254,1.254,1.254,1.254,1.254,1.2264,1.2301,1.2305,1.2349,1.2361,1.2392,1.2404,1.2421,1.2436,1.2473,1.2496,1.2505,1.2521,1.2549,1.2574,1.2578,1.2588,1.2598,1.26,1.2551,1.2544,1.2538,1.2529,1.26,1.26,1.265,1.265,1.2651]},{"header":{"parameterUnit":"m.s-1","parameterCategory":1,"la1":30.2991,"la2":30.254,"lo1":-89.0895,"lo2":-89.0444,"dy":0.0017,"dx":0.0017,"nx":28,"ny":28,"refTime":"2023-10-21T21:00:00:Z","depth":0,"parameterNumber":3,"parameterNumberName":"V-component_of_WINDS"},"data":[0,0,0,0,0,0,0,0,0,0,0,0,0,0,0,0,0,0,0,0,0,0,0,0,0,0,0,0,0,0,0,0,0,0,0,0,0,0,0,0,0,0,0,0,0,0,0,0,0,0,0,0,0,0,0,0,0,0,0.175,0.175,0,0.1737,0.1736,0.1736,0.1717,0.1717,0.1717,0.1716,0.1702,0.1702,0.1702,0,0,0,0,0,0,0,0,0,0,0,0,0,0.176,0.176,0.175,0.175,0.175,0.1737,0.1736,0.1736,0.1717,0.1717,0.1717,0.1716,0.1702,0.1702,0.1702,0,0,0,0,0,0,0,0,0,0,0,0,0,0.1752,0.176,0.175,0.1739,0.1738,0.1737,0.1736,0.1736,0.1717,0.1717,0.1716,0.1716,0.1702,0.1702,0.1702,0.1711,0,0,0.1702,0.1702,0,0,0,0,0,0,0,0,0.1753,0.1752,0.1741,0.174,0.1738,0.1728,0.1735,0.1728,0.1718,0.1725,0.1716,0.1716,0.1711,0.171,0.1709,0.171,0.171,0.1702,0.1702,0.1702,0.1702,0,0,0,0,0,0,0,0.1753,0.1752,0.1745,0.1741,0.1739,0.1735,0.1733,0.1733,0.1721,0.1724,0.1723,0.1722,0.1711,0.1709,0.1708,0.171,0.1702,0.1702,0.1702,0.1702,0.1717,0.1718,0,0,0,0,0,0,0.1756,0.1753,0.1745,0.1744,0.1745,0.1735,0.1733,0.1732,0.1721,0.1719,0.1722,0.1721,0.1709,0.1709,0.1708,0.1717,0.1702,0.1702,0.1702,0.1717,0.1717,0.1718,0,0,0,0,0,0,0.1756,0.1755,0.1746,0.1748,0.1747,0.1735,0.1734,0.1732,0.173,0.1719,0.1717,0.1723,0.1709,0.1708,0.171,0.1717,0.1702,0.1701,0.1716,0.1717,0.1718,0.1737,0,0,0,0,0,0,0.1756,0.1755,0.1759,0.1749,0.1747,0.1749,0.1735,0.1732,0.173,0.1728,0.1719,0.1717,0.1709,0.1711,0.171,0.1716,0.1701,0.1716,0.1717,0.1718,0.1736,0.1738,0.174,0,0,0,0,0,0.1757,0.1765,0.1759,0.1758,0.1751,0.1749,0.1748,0.1738,0.1731,0.1734,0.1727,0.1718,0.1716,0.1711,0.171,0.1717,0.1715,0.1716,0.1717,0.1735,0.1738,0.174,0,0,0,0,0,0,0.1776,0.1763,0.1757,0.1761,0.1757,0.1746,0.175,0.1741,0.1738,0.1737,0.1724,0.1722,0.1726,0.1722,0.1716,0.1724,0.1714,0.1715,0.1727,0.173,0.1733,0.1734,0.1701,0,0,0,0,0,0.1781,0.178,0.1769,0.1775,0.1772,0.1762,0.176,0.1753,0.1747,0.1745,0.1738,0.1733,0.1731,0.173,0.1728,0.1735,0.1732,0.1739,0.1741,0.1743,0.1744,0.1747,0.175,0.1722,0.1722,0.1722,0,0,0.1791,0.1784,0.1784,0.1778,0.1774,0.1774,0.176,0.1761,0.1761,0.1745,0.1747,0.1742,0.1735,0.1739,0.1741,0.1736,0.1751,0.1744,0.1746,0.1746,0.1748,0.1751,0.1753,0.1722,0.1722,0.1722,0,0,0.1809,0.1803,0.1807,0.1803,0.1796,0.1788,0.1789,0.178,0.1776,0.1777,0.1766,0.1765,0.1763,0.1758,0.1756,0.1772,0.1764,0.1772,0.1784,0.1787,0.1789,0.1791,0.1797,0.1799,0.1773,0.1773,0.1773,0,0.1822,0.1822,0.181,0.1812,0.1809,0.1795,0.1799,0.1795,0.1788,0.1787,0.1781,0.1777,0.1772,0.1775,0.1779,0.1777,0.1778,0.1773,0.179,0.1792,0.1793,0.1799,0.1801,0.1774,0.1774,0.1774,0.1774,0,0.1838,0.1838,0.1842,0.1835,0.1833,0.1836,0.1825,0.1825,0.1817,0.181,0.1812,0.1805,0.1801,0.1801,0.1794,0.1803,0.18,0.1792,0.1782,0.1797,0.1802,0.1804,0.1775,0.1775,0.1775,0.1774,0,0,0.1868,0.1855,0.1857,0.1853,0.1844,0.1844,0.1846,0.1842,0.1842,0.1837,0.1838,0.1836,0.1829,0.1826,0.1818,0.1821,0.1834,0.1813,0.1812,0.1817,0.1844,0.185,0.1853,0.1828,0.1829,0.1829,0.1845,0,0.1885,0.1887,0.1877,0.1882,0.1882,0.1869,0.187,0.1865,0.1859,0.1857,0.185,0.1849,0.1839,0.1838,0.184,0.1832,0.184,0.1831,0.183,0.183,0.1832,0.1855,0.1862,0.1877,0.1847,0.1847,0.1847,0,0.1905,0.1901,0.1906,0.1897,0.1896,0.1898,0.1893,0.1892,0.1886,0.1881,0.1878,0.1869,0.187,0.186,0.1861,0.1856,0.1854,0.1851,0.1851,0.1851,0.184,0.1856,0.1882,0.1884,0.185,0.185,0.185,0,0.1926,0.1923,0.1925,0.1923,0.1912,0.1913,0.1909,0.1902,0.19,0.1896,0.1895,0.1891,0.1889,0.1886,0.1877,0.187,0.1879,0.1868,0.1875,0.1875,0.1878,0.1878,0.1904,0.1877,0.1877,0.1877,0.1877,0,0.1946,0.195,0.1935,0.1936,0.194,0.1928,0.1932,0.1926,0.192,0.192,0.1908,0.1909,0.1896,0.1895,0.1887,0.1889,0.1888,0.1884,0.1882,0.1886,0.1886,0.1885,0.1883,0.1877,0.1877,0.1877,0.1877,0,0.1971,0.1961,0.1963,0.1952,0.195,0.1953,0.1944,0.1945,0.1938,0.1938,0.1937,0.1926,0.1924,0.1914,0.191,0.1904,0.191,0.1905,0.1912,0.191,0.1918,0.1918,0.1944,0.1947,0.1918,0.1919,0.1919,0,0.1984,0.1987,0.1976,0.1976,0.1972,0.1971,0.1969,0.1957,0.1956,0.1948,0.195,0.1947,0.1944,0.1942,0.1933,0.193,0.1926,0.1935,0.1925,0.1928,0.1926,0.1926,0.1926,0.1938,0.1938,0.1938,0.1939,0,0.2009,0.2004,0.2002,0.1998,0.1996,0.1992,0.1988,0.1988,0.1975,0.1974,0.1971,0.1969,0.1965,0.1962,0.1957,0.1952,0.1943,0.1942,0.1943,0.1947,0.195,0.1949,0.1918,0.1941,0.1941,0.1941,0.1941,0.1941,0.2028,0.203,0.2023,0.2021,0.2016,0.2012,0.2013,0.2005,0.2003,0.1999,0.1992,0.1991,0.1984,0.1977,0.1973,0.1972,0.1966,0.1969,0.1969,0.197,0.1971,0.195,0.1971,0.1971,0.197,0.197,0.197,0,0.2052,0.2047,0.2045,0.2039,0.2038,0.2029,0.2024,0.2023,0.2022,0.2017,0.2014,0.2011,0.2009,0.2,0.1996,0.1997,0.1993,0.1996,0.1996,0.1995,0.1976,0.1975,0.2,0.2,0.2,0.2,0.2,0.2,0.2065,0.2067,0.2061,0.2061,0.2055,0.2054,0.2052,0.2048,0.2044,0.2042,0.2039,0.2033,0.2026,0.2022,0.2019,0.2017,0.2016,0.2021,0.2017,0.2,0.1997,0.1994,0.1993,0.2021,0.2021,0.2036,0.2036,0.2036]}]]